[[{"header":{"parameterUnit":"m.s-1","parameterCategory":1,"la1":30.2991,"la2":30.254,"lo1":-89.0895,"lo2":-89.0444,"dx":0.0017,"dy":0.0017,"nx":28,"ny":28,"refTime":"2022-12-18T15:00:00:Z","depth":0,"parameterNumber":2,"parameterNumberName":"U-component_of_WINDS"},"data":[0,0,0,0,0,0,0,0,0,0,0,0,0,0,0,0,0,0,0,0,0,0,0,0,0,0,0,0,0,0,0,0,0,0,0,0,0,0,0,0,0,0,0,0,0,0,0,0,0,0,0,0,0,0,0,0,0,0,-8.3979,-8.3979,0,-8.4007,-8.4007,-8.4007,-8.3707,-8.3698,-8.369,-8.3682,-8.3723,-8.3732,-8.3741,0,0,0,0,0,0,0,0,0,0,0,0,0,-8.3679,-8.3686,-8.3979,-8.3979,-8.3979,-8.4007,-8.4007,-8.4007,-8.3708,-8.3698,-8.3688,-8.3678,-8.372,-8.3731,-8.3741,0,0,0,0,0,0,0,0,0,0,0,0,0,-8.3769,-8.3689,-8.3979,-8.3833,-8.382,-8.4006,-8.4007,-8.4007,-8.371,-8.3698,-8.3685,-8.3674,-8.3717,-8.373,-8.3743,-8.4074,0,0,-8.3783,-8.3789,0,0,0,0,0,0,0,0,-8.3764,-8.378,-8.3854,-8.3843,-8.3829,-8.384,-8.3916,-8.403,-8.3713,-8.3753,-8.3682,-8.3668,-8.3773,-8.3781,-8.3814,-8.4075,-8.4077,-8.3784,-8.3792,-8.3798,-8.3802,0,0,0,0,0,0,0,-8.3758,-8.3778,-8.399,-8.3856,-8.3841,-8.3771,-8.377,-8.3936,-8.3833,-8.3748,-8.3726,-8.3733,-8.3764,-8.3802,-8.3813,-8.4078,-8.3784,-8.3796,-8.3804,-8.3809,-8.4616,-8.4629,0,0,0,0,0,0,-8.377,-8.3774,-8.3989,-8.3991,-8.3765,-8.3786,-8.3785,-8.385,-8.383,-8.3815,-8.3744,-8.3719,-8.3785,-8.3797,-8.3813,-8.42,-8.3798,-8.381,-8.3818,-8.4603,-8.4619,-8.4634,0,0,0,0,0,0,-8.3765,-8.3792,-8.3988,-8.3877,-8.3896,-8.3804,-8.388,-8.3857,-8.3894,-8.3826,-8.3808,-8.3801,-8.3776,-8.3794,-8.4011,-8.4198,-8.3816,-8.3828,-8.4587,-8.4608,-8.4626,-8.4978,0,0,0,0,0,0,-8.3758,-8.3792,-8.3914,-8.3881,-8.3903,-8.4183,-8.3891,-8.3866,-8.3916,-8.3884,-8.3875,-8.3861,-8.3768,-8.3993,-8.4024,-8.4209,-8.3839,-8.457,-8.4596,-8.462,-8.495,-8.5008,-8.5058,0,0,0,0,0,-8.3748,-8.4014,-8.3921,-8.3949,-8.4053,-8.4194,-8.4207,-8.409,-8.3932,-8.4056,-8.4013,-8.3862,-8.4172,-8.4017,-8.405,-8.4242,-8.4557,-8.4589,-8.4618,-8.4925,-8.4997,-8.5057,0,0,0,0,0,0,-8.4074,-8.4007,-8.3903,-8.4166,-8.4188,-8.4143,-8.4294,-8.4169,-8.4238,-8.4206,-8.4062,-8.4062,-8.4304,-8.4294,-8.4123,-8.4563,-8.4338,-8.4376,-8.456,-8.4627,-8.4681,-8.4679,-8.385,0,0,0,0,0,-8.4175,-8.4292,-8.4228,-8.4466,-8.4482,-8.4388,-8.4445,-8.4353,-8.4371,-8.438,-8.4352,-8.438,-8.4483,-8.4554,-8.4646,-8.4947,-8.4942,-8.5095,-8.515,-8.5194,-8.523,-8.5391,-8.5459,-8.4733,-8.4733,-8.4732,0,0,-8.4388,-8.4366,-8.4449,-8.4531,-8.4537,-8.4665,-8.4397,-8.4543,-8.4638,-8.4403,-8.4605,-8.4587,-8.4608,-8.4869,-8.4983,-8.4868,-8.5429,-8.5233,-8.5269,-8.528,-8.543,-8.5499,-8.556,-8.4754,-8.475,-8.4747,0,0,-8.4841,-8.4834,-8.5032,-8.5044,-8.5055,-8.499,-8.5039,-8.5014,-8.4992,-8.5192,-8.5019,-8.5132,-8.5312,-8.5335,-8.537,-8.5835,-8.57,-8.587,-8.6154,-8.6313,-8.637,-8.642,-8.6589,-8.665,-8.5905,-8.5906,-8.5906,0,-8.5105,-8.5286,-8.5152,-8.531,-8.5353,-8.5143,-8.5345,-8.5364,-8.5407,-8.5444,-8.5314,-8.5538,-8.5537,-8.5802,-8.5915,-8.595,-8.6004,-8.587,-8.6372,-8.6421,-8.6466,-8.6625,-8.6688,-8.5926,-8.5924,-8.5922,-8.592,0,-8.5611,-8.5741,-8.59,-8.5943,-8.6005,-8.6185,-8.6082,-8.6161,-8.6065,-8.6017,-8.6226,-8.6217,-8.6304,-8.636,-8.6269,-8.6614,-8.6543,-8.6396,-8.6166,-8.6558,-8.6705,-8.6765,-8.5956,-8.5948,-8.5942,-8.5937,0,0,-8.6269,-8.6236,-8.6297,-8.6315,-8.6314,-8.6413,-8.6586,-8.6667,-8.674,-8.6778,-8.6921,-8.708,-8.6944,-8.6984,-8.6894,-8.7034,-8.7407,-8.6869,-8.6867,-8.6971,-8.779,-8.7902,-8.7975,-8.7316,-8.7327,-8.7336,-8.7789,0,-8.6711,-8.6999,-8.6885,-8.7185,-8.7305,-8.7109,-8.7259,-8.7278,-8.7238,-8.7337,-8.7294,-8.741,-8.7219,-8.7243,-8.7372,-8.7334,-8.7569,-8.7299,-8.7453,-8.746,-8.7455,-8.8051,-8.8169,-8.8597,-8.7845,-8.7855,-8.7862,0,-8.7265,-8.7322,-8.7634,-8.7613,-8.7659,-8.7796,-8.7863,-8.7959,-8.7978,-8.7939,-8.7986,-8.7866,-8.8038,-8.781,-8.8048,-8.7867,-8.7923,-8.7915,-8.7929,-8.7939,-8.7686,-8.808,-8.873,-8.8795,-8.7951,-8.7944,-8.7937,0,-8.7717,-8.7872,-8.8078,-8.81,-8.808,-8.8182,-8.818,-8.8185,-8.8242,-8.8303,-8.8339,-8.8421,-8.8467,-8.8535,-8.8442,-8.8284,-8.8696,-8.8458,-8.8672,-8.8675,-8.8768,-8.8764,-8.9439,-8.8804,-8.8803,-8.8801,-8.88,0,-8.8223,-8.8422,-8.8281,-8.8409,-8.8627,-8.8496,-8.8718,-8.8694,-8.8701,-8.8824,-8.8661,-8.878,-8.8649,-8.8759,-8.8688,-8.8898,-8.8919,-8.8896,-8.8875,-8.8911,-8.8915,-8.8947,-8.8916,-8.8818,-8.8815,-8.8811,-8.8808,0,-8.8764,-8.8677,-8.889,-8.8854,-8.885,-8.9013,-8.8984,-8.9103,-8.9051,-8.9209,-8.9239,-8.9161,-8.9281,-8.9194,-8.9314,-8.9267,-8.9544,-8.948,-8.9537,-8.952,-8.9739,-8.9721,-9.046,-9.0551,-8.9856,-8.9863,-8.9869,0,-8.9094,-8.9242,-8.9221,-8.929,-8.9297,-8.941,-8.9467,-8.9346,-8.9413,-8.9446,-8.9563,-8.9668,-8.9745,-8.9948,-8.9904,-8.9996,-8.9935,-9.0188,-8.9948,-8.9981,-8.9942,-8.9935,-8.995,-9.0237,-9.0245,-9.0252,-9.0257,0,-8.9689,-8.9639,-8.9725,-8.9799,-8.9871,-8.9924,-8.9964,-9.0031,-8.9908,-8.9993,-9.0111,-9.0172,-9.0294,-9.0402,-9.0478,-9.0479,-9.0352,-9.0333,-9.0388,-9.0427,-9.0455,-9.0445,-8.9671,-9.0317,-9.0311,-9.0307,-9.0303,-9.0301,-9.0135,-9.0258,-9.0263,-9.0367,-9.0383,-9.0425,-9.0536,-9.0498,-9.0593,-9.068,-9.0604,-9.0748,-9.0766,-9.0854,-9.0873,-9.0986,-9.0883,-9.0962,-9.0982,-9.1004,-9.1036,-9.0436,-9.1,-9.0998,-9.0996,-9.0995,-9.0993,0,-9.0723,-9.0716,-9.0812,-9.0873,-9.0956,-9.0822,-9.0861,-9.094,-9.1068,-9.1093,-9.1173,-9.1312,-9.1417,-9.1382,-9.1476,-9.1574,-9.1518,-9.1603,-9.1596,-9.1599,-9.1122,-9.1066,-9.1647,-9.1647,-9.1647,-9.1647,-9.1647,-9.1647,-9.1038,-9.1241,-9.1193,-9.1404,-9.1396,-9.1533,-9.1567,-9.1607,-9.1626,-9.1788,-9.1872,-9.1847,-9.1851,-9.1944,-9.2036,-9.2023,-9.2067,-9.2175,-9.2142,-9.1697,-9.1632,-9.1571,-9.1517,-9.2184,-9.2185,-9.2609,-9.2613,-9.2616]},{"header":{"parameterUnit":"m.s-1","parameterCategory":1,"la1":30.2991,"la2":30.254,"lo1":-89.0895,"lo2":-89.0444,"dx":0.0017,"dy":0.0017,"nx":28,"ny":28,"refTime":"2022-12-18T15:00:00:Z","depth":0,"parameterNumber":3,"parameterNumberName":"V-component_of_WINDS"},"data":[0,0,0,0,0,0,0,0,0,0,0,0,0,0,0,0,0,0,0,0,0,0,0,0,0,0,0,0,0,0,0,0,0,0,0,0,0,0,0,0,0,0,0,0,0,0,0,0,0,0,0,0,0,0,0,0,0,0,-3.6832,-3.6831,0,-3.6661,-3.6659,-3.6657,-3.6566,-3.6566,-3.6565,-3.6565,-3.6381,-3.6376,-3.6372,0,0,0,0,0,0,0,0,0,0,0,0,0,-3.7071,-3.7068,-3.6833,-3.683,-3.6828,-3.6661,-3.6659,-3.6656,-3.6566,-3.6566,-3.6565,-3.6565,-3.6383,-3.6377,-3.6371,0,0,0,0,0,0,0,0,0,0,0,0,0,-3.694,-3.7066,-3.6833,-3.6763,-3.6755,-3.6662,-3.6659,-3.6656,-3.6566,-3.6566,-3.6565,-3.6565,-3.6385,-3.6378,-3.6371,-3.6331,0,0,-3.6349,-3.6346,0,0,0,0,0,0,0,0,-3.6948,-3.6932,-3.6776,-3.6768,-3.6759,-3.6635,-3.6675,-3.6547,-3.6566,-3.6637,-3.6565,-3.6565,-3.6465,-3.6451,-3.6419,-3.6322,-3.6314,-3.6348,-3.6344,-3.6341,-3.6339,0,0,0,0,0,0,0,-3.6957,-3.6938,-3.6764,-3.6773,-3.6763,-3.6737,-3.6718,-3.665,-3.6554,-3.6631,-3.6624,-3.6606,-3.646,-3.6426,-3.6414,-3.6312,-3.6348,-3.6342,-3.6337,-3.6335,-3.6168,-3.6168,0,0,0,0,0,0,-3.6979,-3.6947,-3.677,-3.6759,-3.6855,-3.6733,-3.6712,-3.6675,-3.6555,-3.6537,-3.6606,-3.6602,-3.6439,-3.6423,-3.6407,-3.635,-3.6341,-3.6334,-3.633,-3.6168,-3.6168,-3.6168,0,0,0,0,0,0,-3.6984,-3.6964,-3.6777,-3.6851,-3.6825,-3.6729,-3.6688,-3.6671,-3.6637,-3.6536,-3.6517,-3.659,-3.6438,-3.6418,-3.635,-3.6343,-3.6331,-3.6324,-3.6169,-3.6168,-3.6168,-3.6238,0,0,0,0,0,0,-3.6992,-3.6966,-3.6953,-3.6852,-3.6822,-3.6726,-3.6688,-3.6668,-3.6626,-3.6619,-3.6516,-3.6498,-3.6436,-3.6361,-3.6343,-3.6333,-3.6319,-3.6169,-3.6168,-3.6168,-3.6236,-3.624,-3.6244,0,0,0,0,0,-3.7,-3.6979,-3.6953,-3.6932,-3.6803,-3.6726,-3.6708,-3.664,-3.6626,-3.661,-3.6544,-3.6501,-3.6347,-3.6355,-3.6334,-3.6321,-3.6169,-3.6169,-3.6168,-3.6234,-3.6239,-3.6244,0,0,0,0,0,0,-3.708,-3.6964,-3.6934,-3.688,-3.6814,-3.6711,-3.6688,-3.6648,-3.6582,-3.6578,-3.6493,-3.647,-3.641,-3.6359,-3.637,-3.6274,-3.6253,-3.6249,-3.631,-3.6315,-3.6319,-3.6332,-3.6313,0,0,0,0,0,-3.7091,-3.7041,-3.6941,-3.6902,-3.6871,-3.6786,-3.6749,-3.6702,-3.6629,-3.66,-3.6529,-3.6457,-3.6391,-3.635,-3.6285,-3.6228,-3.6202,-3.6208,-3.6212,-3.6216,-3.6213,-3.6175,-3.6176,-3.6167,-3.6167,-3.6167,0,0,-3.7114,-3.7044,-3.7017,-3.6917,-3.686,-3.6806,-3.6763,-3.6708,-3.6666,-3.659,-3.6523,-3.6468,-3.6381,-3.6319,-3.6287,-3.6274,-3.6209,-3.6216,-3.622,-3.6214,-3.6175,-3.6176,-3.6177,-3.6167,-3.6167,-3.6167,0,0,-3.7127,-3.7071,-3.7031,-3.6975,-3.689,-3.6833,-3.6824,-3.6726,-3.6687,-3.6619,-3.656,-3.6506,-3.6397,-3.6337,-3.6292,-3.628,-3.6236,-3.626,-3.6281,-3.6245,-3.6246,-3.6246,-3.6239,-3.6238,-3.6257,-3.6258,-3.6258,0,-3.7165,-3.7085,-3.7015,-3.6964,-3.6919,-3.685,-3.6807,-3.6754,-3.6651,-3.6621,-3.6608,-3.6467,-3.6404,-3.6324,-3.6321,-3.6288,-3.6271,-3.6272,-3.6252,-3.6251,-3.625,-3.6243,-3.624,-3.6261,-3.626,-3.626,-3.626,0,-3.7134,-3.7079,-3.7056,-3.6961,-3.6914,-3.6867,-3.6786,-3.6746,-3.6702,-3.6646,-3.6574,-3.6496,-3.6412,-3.6389,-3.6346,-3.6302,-3.6296,-3.6269,-3.6246,-3.6256,-3.6247,-3.6244,-3.6266,-3.6264,-3.6263,-3.6263,0,0,-3.7193,-3.7059,-3.7052,-3.7006,-3.6906,-3.686,-3.6808,-3.6728,-3.6694,-3.6624,-3.6576,-3.6484,-3.6457,-3.6406,-3.6354,-3.6323,-3.6315,-3.6298,-3.6295,-3.6302,-3.6258,-3.6279,-3.6277,-3.6286,-3.6285,-3.6284,-3.6265,0,-3.7191,-3.7098,-3.7032,-3.6962,-3.6908,-3.684,-3.6794,-3.6725,-3.667,-3.6613,-3.6551,-3.6486,-3.6457,-3.6425,-3.6392,-3.6323,-3.6304,-3.6324,-3.6236,-3.6234,-3.6259,-3.6272,-3.6294,-3.628,-3.6261,-3.626,-3.626,0,-3.7176,-3.711,-3.7036,-3.694,-3.6914,-3.6875,-3.6794,-3.6742,-3.6661,-3.6623,-3.6565,-3.6512,-3.645,-3.6433,-3.6343,-3.6358,-3.6318,-3.6278,-3.6276,-3.6264,-3.6247,-3.6259,-3.6274,-3.6271,-3.6254,-3.6255,-3.6255,0,-3.7224,-3.7117,-3.7058,-3.7021,-3.6907,-3.688,-3.6831,-3.675,-3.6706,-3.6634,-3.6604,-3.6525,-3.6482,-3.6421,-3.6346,-3.6341,-3.6263,-3.624,-3.6226,-3.6228,-3.6212,-3.6214,-3.6219,-3.6189,-3.6189,-3.6189,-3.6189,0,-3.7227,-3.7183,-3.7077,-3.7041,-3.6989,-3.6912,-3.6861,-3.6806,-3.6734,-3.6683,-3.6618,-3.6571,-3.6476,-3.6416,-3.6357,-3.629,-3.6271,-3.6235,-3.622,-3.624,-3.6245,-3.6212,-3.621,-3.6189,-3.6189,-3.6189,-3.6189,0,-3.7271,-3.7199,-3.713,-3.7028,-3.7001,-3.6967,-3.6878,-3.6838,-3.6779,-3.6714,-3.6694,-3.66,-3.6526,-3.6446,-3.6343,-3.6303,-3.6238,-3.6218,-3.6267,-3.6258,-3.6247,-3.6249,-3.6231,-3.6223,-3.6201,-3.6201,-3.6201,0,-3.7278,-3.7243,-3.7138,-3.71,-3.7053,-3.6993,-3.6947,-3.6869,-3.6823,-3.6727,-3.6697,-3.6619,-3.6551,-3.6434,-3.6354,-3.6275,-3.625,-3.6249,-3.6238,-3.6258,-3.6247,-3.625,-3.6244,-3.6253,-3.6253,-3.6254,-3.6254,0,-3.7296,-3.7261,-3.72,-3.7125,-3.7072,-3.7009,-3.6942,-3.6914,-3.6821,-3.6772,-3.6697,-3.6645,-3.654,-3.6461,-3.6372,-3.6316,-3.6268,-3.6259,-3.6251,-3.6271,-3.63,-3.6282,-3.6275,-3.6259,-3.6259,-3.6258,-3.6258,-3.6258,-3.7319,-3.7284,-3.7204,-3.7137,-3.7079,-3.7018,-3.6975,-3.691,-3.6847,-3.6758,-3.6714,-3.6638,-3.6553,-3.6429,-3.6374,-3.6311,-3.6296,-3.6286,-3.6282,-3.6281,-3.6285,-3.6312,-3.6294,-3.6294,-3.6294,-3.6293,-3.6293,0,-3.7332,-3.7277,-3.7216,-3.7126,-3.7071,-3.7034,-3.6958,-3.6914,-3.6848,-3.6776,-3.6711,-3.6622,-3.6544,-3.6458,-3.6374,-3.6339,-3.6315,-3.632,-3.6321,-3.6308,-3.6304,-3.6318,-3.6341,-3.6341,-3.6341,-3.6341,-3.6341,-3.6341,-3.7332,-3.727,-3.7226,-3.7133,-3.7077,-3.7004,-3.6963,-3.6905,-3.6846,-3.6751,-3.6687,-3.6632,-3.6552,-3.6462,-3.6388,-3.6364,-3.6335,-3.6346,-3.6315,-3.6313,-3.6309,-3.6305,-3.6318,-3.6341,-3.6341,-3.6324,-3.6324,-3.6324]}]]